Year,Month,Day,Hour,Minute,Value (Times are PST for temperature in C)
2017,06,25,00,00,14.30
2017,06,25,00,01,14.30
2017,06,25,00,02,14.20
2017,06,25,00,03,14.20
2017,06,25,00,04,14.20
2017,06,25,00,05,14.20
2017,06,25,00,06,14.20
2017,06,25,00,07,14.10
2017,06,25,00,08,14.10
2017,06,25,00,09,14.10
2017,06,25,00,10,14.10
2017,06,25,00,11,14.10
2017,06,25,00,12,14.10
2017,06,25,00,13,14.00
2017,06,25,00,14,14.00
2017,06,25,00,15,14.00
2017,06,25,00,16,14.00
2017,06,25,00,17,13.90
2017,06,25,00,18,13.90
2017,06,25,00,19,13.90
2017,06,25,00,20,13.90
2017,06,25,00,21,13.90
2017,06,25,00,22,13.80
2017,06,25,00,23,13.80
2017,06,25,00,24,13.80
2017,06,25,00,25,13.80
2017,06,25,00,26,13.70
2017,06,25,00,27,13.70
2017,06,25,00,28,13.70
2017,06,25,00,29,13.70
2017,06,25,00,30,13.70
2017,06,25,00,31,13.70
2017,06,25,00,32,13.70
2017,06,25,00,33,13.60
2017,06,25,00,34,13.60
2017,06,25,00,35,13.60
2017,06,25,00,36,13.60
2017,06,25,00,37,13.60
2017,06,25,00,38,13.60
2017,06,25,00,39,13.60
2017,06,25,00,40,13.50
2017,06,25,00,41,13.50
2017,06,25,00,42,13.50
2017,06,25,00,43,13.40
2017,06,25,00,44,13.40
2017,06,25,00,45,13.40
2017,06,25,00,46,13.40
2017,06,25,00,47,13.40
2017,06,25,00,48,13.40
2017,06,25,00,49,13.40
2017,06,25,00,50,13.40
2017,06,25,00,51,13.30
2017,06,25,00,52,13.30
2017,06,25,00,53,13.30
2017,06,25,00,54,13.30
2017,06,25,00,55,13.30
2017,06,25,00,56,13.30
2017,06,25,00,57,13.30
2017,06,25,00,58,13.30
2017,06,25,00,59,13.30
2017,06,25,01,00,13.30
2017,06,25,01,01,13.30
2017,06,25,01,02,13.20
2017,06,25,01,03,13.20
2017,06,25,01,04,13.20
2017,06,25,01,05,13.20
2017,06,25,01,06,13.20
2017,06,25,01,07,13.20
2017,06,25,01,08,13.10
2017,06,25,01,09,13.10
2017,06,25,01,10,13.10
2017,06,25,01,11,13.10
2017,06,25,01,12,13.00
2017,06,25,01,13,13.00
2017,06,25,01,14,13.00
2017,06,25,01,15,12.90
2017,06,25,01,16,12.90
2017,06,25,01,17,12.90
2017,06,25,01,18,12.90
2017,06,25,01,19,12.90
2017,06,25,01,20,12.90
2017,06,25,01,21,12.90
2017,06,25,01,22,12.80
2017,06,25,01,23,12.80
2017,06,25,01,24,12.80
2017,06,25,01,25,12.80
2017,06,25,01,26,12.80
2017,06,25,01,27,12.80
2017,06,25,01,28,12.80
2017,06,25,01,29,12.80
2017,06,25,01,30,12.80
2017,06,25,01,31,12.70
2017,06,25,01,32,12.70
2017,06,25,01,33,12.70
2017,06,25,01,34,12.70
2017,06,25,01,35,12.70
2017,06,25,01,36,12.70
2017,06,25,01,37,12.60
2017,06,25,01,38,12.60
2017,06,25,01,39,12.60
2017,06,25,01,40,12.60
2017,06,25,01,41,12.50
2017,06,25,01,42,12.50
2017,06,25,01,43,12.50
2017,06,25,01,44,12.40
2017,06,25,01,45,12.40
2017,06,25,01,46,12.40
2017,06,25,01,47,12.40
2017,06,25,01,48,12.40
2017,06,25,01,49,12.40
2017,06,25,01,50,12.40
2017,06,25,01,51,12.30
2017,06,25,01,52,12.30
2017,06,25,01,53,12.30
2017,06,25,01,54,12.30
2017,06,25,01,55,12.30
2017,06,25,01,56,12.30
2017,06,25,01,57,12.20
2017,06,25,01,58,12.20
2017,06,25,01,59,12.20
2017,06,25,02,00,12.20
2017,06,25,02,01,12.10
2017,06,25,02,02,12.10
2017,06,25,02,03,12.10
2017,06,25,02,04,12.10
2017,06,25,02,05,12.10
2017,06,25,02,06,12.10
2017,06,25,02,07,12.10
2017,06,25,02,08,12.10
2017,06,25,02,09,12.00
2017,06,25,02,10,12.00
2017,06,25,02,11,12.00
2017,06,25,02,12,12.00
2017,06,25,02,13,12.00
2017,06,25,02,14,12.00
2017,06,25,02,15,11.90
2017,06,25,02,16,11.90
2017,06,25,02,17,11.90
2017,06,25,02,18,11.90
2017,06,25,02,19,11.90
2017,06,25,02,20,11.90
2017,06,25,02,21,11.90
2017,06,25,02,22,11.90
2017,06,25,02,23,11.90
2017,06,25,02,24,11.90
2017,06,25,02,25,11.90
2017,06,25,02,26,11.90
2017,06,25,02,27,11.80
2017,06,25,02,28,11.80
2017,06,25,02,29,11.80
2017,06,25,02,30,11.80
2017,06,25,02,31,11.80
2017,06,25,02,32,11.80
2017,06,25,02,33,11.80
2017,06,25,02,34,11.80
2017,06,25,02,35,11.80
2017,06,25,02,36,11.80
2017,06,25,02,37,11.80
2017,06,25,02,38,11.80
2017,06,25,02,39,11.80
2017,06,25,02,40,11.80
2017,06,25,02,41,11.80
2017,06,25,02,42,11.80
2017,06,25,02,43,11.80
2017,06,25,02,44,11.80
2017,06,25,02,45,11.80
2017,06,25,02,46,11.70
2017,06,25,02,47,11.70
2017,06,25,02,48,11.70
2017,06,25,02,49,11.70
2017,06,25,02,50,11.70
2017,06,25,02,51,11.70
2017,06,25,02,52,11.60
2017,06,25,02,53,11.60
2017,06,25,02,54,11.60
2017,06,25,02,55,11.60
2017,06,25,02,56,11.60
2017,06,25,02,57,11.60
2017,06,25,02,58,11.60
2017,06,25,02,59,11.60
2017,06,25,03,00,11.60
2017,06,25,03,01,11.50
2017,06,25,03,02,11.50
2017,06,25,03,03,11.50
2017,06,25,03,04,11.50
2017,06,25,03,05,11.50
2017,06,25,03,06,11.50
2017,06,25,03,07,11.40
2017,06,25,03,08,11.40
2017,06,25,03,09,11.40
2017,06,25,03,10,11.40
2017,06,25,03,11,11.30
2017,06,25,03,12,11.30
2017,06,25,03,13,11.30
2017,06,25,03,14,11.30
2017,06,25,03,15,11.20
2017,06,25,03,16,11.20
2017,06,25,03,17,11.20
2017,06,25,03,18,11.20
2017,06,25,03,19,11.20
2017,06,25,03,20,11.20
2017,06,25,03,21,11.20
2017,06,25,03,22,11.20
2017,06,25,03,23,11.20
2017,06,25,03,24,11.10
2017,06,25,03,25,11.10
2017,06,25,03,26,11.10
2017,06,25,03,27,11.10
2017,06,25,03,28,11.10
2017,06,25,03,29,11.10
2017,06,25,03,30,11.00
2017,06,25,03,31,11.00
2017,06,25,03,32,11.00
2017,06,25,03,33,11.00
2017,06,25,03,34,10.90
2017,06,25,03,35,10.90
2017,06,25,03,36,10.90
2017,06,25,03,37,10.90
2017,06,25,03,38,10.90
2017,06,25,03,39,10.90
2017,06,25,03,40,10.90
2017,06,25,03,41,10.90
2017,06,25,03,42,10.90
2017,06,25,03,43,10.80
2017,06,25,03,44,10.80
2017,06,25,03,45,10.80
2017,06,25,03,46,10.80
2017,06,25,03,47,10.80
2017,06,25,03,48,10.80
2017,06,25,03,49,10.80
2017,06,25,03,50,10.80
2017,06,25,03,51,10.70
2017,06,25,03,52,10.70
2017,06,25,03,53,10.70
2017,06,25,03,54,10.70
2017,06,25,03,55,10.70
2017,06,25,03,56,10.70
2017,06,25,03,57,10.70
2017,06,25,03,58,10.70
2017,06,25,03,59,10.60
2017,06,25,04,00,10.60
2017,06,25,04,01,10.60
2017,06,25,04,02,10.60
2017,06,25,04,03,10.60
2017,06,25,04,04,10.60
2017,06,25,04,05,10.60
2017,06,25,04,06,10.60
2017,06,25,04,07,10.60
2017,06,25,04,08,10.60
2017,06,25,04,09,10.50
2017,06,25,04,10,10.50
2017,06,25,04,11,10.50
2017,06,25,04,12,10.50
2017,06,25,04,13,10.50
2017,06,25,04,14,10.50
2017,06,25,04,15,10.50
2017,06,25,04,16,10.50
2017,06,25,04,17,10.50
2017,06,25,04,18,10.40
2017,06,25,04,19,10.40
2017,06,25,04,20,10.40
2017,06,25,04,21,10.40
2017,06,25,04,22,10.40
2017,06,25,04,23,10.40
2017,06,25,04,24,10.30
2017,06,25,04,25,10.30
2017,06,25,04,26,10.30
2017,06,25,04,27,10.30
2017,06,25,04,28,10.30
2017,06,25,04,29,10.30
2017,06,25,04,30,10.30
2017,06,25,04,31,10.20
2017,06,25,04,32,10.20
2017,06,25,04,33,10.20
2017,06,25,04,34,10.20
2017,06,25,04,35,10.20
2017,06,25,04,36,10.20
2017,06,25,04,37,10.20
2017,06,25,04,38,10.20
2017,06,25,04,39,10.10
2017,06,25,04,40,10.10
2017,06,25,04,41,10.10
2017,06,25,04,42,10.10
2017,06,25,04,43,10.10
2017,06,25,04,44,10.10
2017,06,25,04,45,10.10
2017,06,25,04,46,10.10
2017,06,25,04,47,10.00
2017,06,25,04,48,10.00
2017,06,25,04,49,10.00
2017,06,25,04,50,10.00
2017,06,25,04,51,10.00
2017,06,25,04,52,10.00
2017,06,25,04,53,10.00
2017,06,25,04,54,10.00
2017,06,25,04,55,10.00
2017,06,25,04,56,10.00
2017,06,25,04,57,10.00
2017,06,25,04,58,9.90
2017,06,25,04,59,9.90
2017,06,25,05,00,9.90
2017,06,25,05,01,9.90
2017,06,25,05,02,9.90
2017,06,25,05,03,9.90
2017,06,25,05,04,9.90
2017,06,25,05,05,9.90
2017,06,25,05,06,9.90
2017,06,25,05,07,9.90
2017,06,25,05,08,9.90
2017,06,25,05,09,9.90
2017,06,25,05,10,9.90
2017,06,25,05,11,9.90
2017,06,25,05,12,9.90
2017,06,25,05,13,9.90
2017,06,25,05,14,9.90
2017,06,25,05,15,9.90
2017,06,25,05,16,9.90
2017,06,25,05,17,9.90
2017,06,25,05,18,9.90
2017,06,25,05,19,9.90
2017,06,25,05,20,9.90
2017,06,25,05,21,9.90
2017,06,25,05,22,10.00
2017,06,25,05,23,10.00
2017,06,25,05,24,10.00
2017,06,25,05,25,10.00
2017,06,25,05,26,10.00
2017,06,25,05,27,10.00
2017,06,25,05,28,10.00
2017,06,25,05,29,10.00
2017,06,25,05,30,10.00
2017,06,25,05,31,10.00
2017,06,25,05,32,10.10
2017,06,25,05,33,10.10
2017,06,25,05,34,10.10
2017,06,25,05,35,10.10
2017,06,25,05,36,10.00
2017,06,25,05,37,10.00
2017,06,25,05,38,10.10
2017,06,25,05,39,10.10
2017,06,25,05,40,10.10
2017,06,25,05,41,10.10
2017,06,25,05,42,10.10
2017,06,25,05,43,10.10
2017,06,25,05,44,10.10
2017,06,25,05,45,10.10
2017,06,25,05,46,10.10
2017,06,25,05,47,10.10
2017,06,25,05,48,10.10
2017,06,25,05,49,10.10
2017,06,25,05,50,10.10
2017,06,25,05,51,10.10
2017,06,25,05,52,10.10
2017,06,25,05,53,10.10
2017,06,25,05,54,10.10
2017,06,25,05,55,10.10
2017,06,25,05,56,10.10
2017,06,25,05,57,10.20
2017,06,25,05,58,10.20
2017,06,25,05,59,10.20
2017,06,25,06,00,10.20
2017,06,25,06,01,10.20
2017,06,25,06,02,10.30
2017,06,25,06,03,10.30
2017,06,25,06,04,10.30
2017,06,25,06,05,10.30
2017,06,25,06,06,10.30
2017,06,25,06,07,10.30
2017,06,25,06,08,10.40
2017,06,25,06,09,10.40
2017,06,25,06,10,10.40
2017,06,25,06,11,10.40
2017,06,25,06,12,10.40
2017,06,25,06,13,10.50
2017,06,25,06,14,10.50
2017,06,25,06,15,10.50
2017,06,25,06,16,10.50
2017,06,25,06,17,10.60
2017,06,25,06,18,10.60
2017,06,25,06,19,10.60
2017,06,25,06,20,10.60
2017,06,25,06,21,10.60
2017,06,25,06,22,10.60
2017,06,25,06,23,10.70
2017,06,25,06,24,10.70
2017,06,25,06,25,10.70
2017,06,25,06,26,10.70
2017,06,25,06,27,10.70
2017,06,25,06,28,10.70
2017,06,25,06,29,10.70
2017,06,25,06,30,10.70
2017,06,25,06,31,10.70
2017,06,25,06,32,10.70
2017,06,25,06,33,10.70
2017,06,25,06,34,10.80
2017,06,25,06,35,10.80
2017,06,25,06,36,10.80
2017,06,25,06,37,10.80
2017,06,25,06,38,10.80
2017,06,25,06,39,10.80
2017,06,25,06,40,10.80
2017,06,25,06,41,10.80
2017,06,25,06,42,10.80
2017,06,25,06,43,10.80
2017,06,25,06,44,10.80
2017,06,25,06,45,10.80
2017,06,25,06,46,10.80
2017,06,25,06,47,10.80
2017,06,25,06,48,10.80
2017,06,25,06,49,10.80
2017,06,25,06,50,10.80
2017,06,25,06,51,10.80
2017,06,25,06,52,10.90
2017,06,25,06,53,10.90
2017,06,25,06,54,10.90
2017,06,25,06,55,10.90
2017,06,25,06,56,10.90
2017,06,25,06,57,10.90
2017,06,25,06,58,10.90
2017,06,25,06,59,11.00
2017,06,25,07,00,11.00
2017,06,25,07,01,11.00
2017,06,25,07,02,11.10
2017,06,25,07,03,11.10
2017,06,25,07,04,11.10
2017,06,25,07,05,11.20
2017,06,25,07,06,11.20
2017,06,25,07,07,11.20
2017,06,25,07,08,11.20
2017,06,25,07,09,11.30
2017,06,25,07,10,11.30
2017,06,25,07,11,11.30
2017,06,25,07,12,11.30
2017,06,25,07,13,11.40
2017,06,25,07,14,11.40
2017,06,25,07,15,11.50
2017,06,25,07,16,11.50
2017,06,25,07,17,11.60
2017,06,25,07,18,11.60
2017,06,25,07,19,11.70
2017,06,25,07,20,11.70
2017,06,25,07,21,11.80
2017,06,25,07,22,11.80
2017,06,25,07,23,11.90
2017,06,25,07,24,11.90
2017,06,25,07,25,12.00
2017,06,25,07,26,12.10
2017,06,25,07,27,12.10
2017,06,25,07,28,12.20
2017,06,25,07,29,12.30
2017,06,25,07,30,12.30
2017,06,25,07,31,12.40
2017,06,25,07,32,12.50
2017,06,25,07,33,12.60
2017,06,25,07,34,12.70
2017,06,25,07,35,12.80
2017,06,25,07,36,12.80
2017,06,25,07,37,12.90
2017,06,25,07,38,12.90
2017,06,25,07,39,13.00
2017,06,25,07,40,13.10
2017,06,25,07,41,13.10
2017,06,25,07,42,13.10
2017,06,25,07,43,13.20
2017,06,25,07,44,13.20
2017,06,25,07,45,13.30
2017,06,25,07,46,13.40
2017,06,25,07,47,13.40
2017,06,25,07,48,13.50
2017,06,25,07,49,13.60
2017,06,25,07,50,13.70
2017,06,25,07,51,13.70
2017,06,25,07,52,13.80
2017,06,25,07,53,13.90
2017,06,25,07,54,14.00
2017,06,25,07,55,14.10
2017,06,25,07,56,14.20
2017,06,25,07,57,14.30
2017,06,25,07,58,14.50
2017,06,25,07,59,14.60
2017,06,25,08,00,14.70
2017,06,25,08,01,14.90
2017,06,25,08,02,15.00
2017,06,25,08,03,15.00
2017,06,25,08,04,15.10
2017,06,25,08,05,15.30
2017,06,25,08,06,15.40
2017,06,25,08,07,15.50
2017,06,25,08,08,15.80
2017,06,25,08,09,15.90
2017,06,25,08,10,16.10
2017,06,25,08,11,16.30
2017,06,25,08,12,16.40
2017,06,25,08,13,16.50
2017,06,25,08,14,16.70
2017,06,25,08,15,16.80
2017,06,25,08,16,16.80
2017,06,25,08,17,16.90
2017,06,25,08,18,17.00
2017,06,25,08,19,17.10
2017,06,25,08,20,17.20
2017,06,25,08,21,17.30
2017,06,25,08,22,17.40
2017,06,25,08,23,17.50
2017,06,25,08,24,17.70
2017,06,25,08,25,17.80
2017,06,25,08,26,17.90
2017,06,25,08,27,18.00
2017,06,25,08,28,18.10
2017,06,25,08,29,18.20
2017,06,25,08,30,18.30
2017,06,25,08,31,18.40
2017,06,25,08,32,18.50
2017,06,25,08,33,18.60
2017,06,25,08,34,18.70
2017,06,25,08,35,18.70
2017,06,25,08,36,18.70
2017,06,25,08,37,18.80
2017,06,25,08,38,18.90
2017,06,25,08,39,18.90
2017,06,25,08,40,19.00
2017,06,25,08,41,19.10
2017,06,25,08,42,19.20
2017,06,25,08,43,19.30
2017,06,25,08,44,19.30
2017,06,25,08,45,19.40
2017,06,25,08,46,19.50
2017,06,25,08,47,19.70
2017,06,25,08,48,19.80
2017,06,25,08,49,19.80
2017,06,25,08,50,19.90
2017,06,25,08,51,20.00
2017,06,25,08,52,20.20
2017,06,25,08,53,20.30
2017,06,25,08,54,20.40
2017,06,25,08,55,20.50
2017,06,25,08,56,20.70
2017,06,25,08,57,20.80
2017,06,25,08,58,20.90
2017,06,25,08,59,21.00
2017,06,25,09,00,21.10
2017,06,25,09,01,21.20
2017,06,25,09,02,21.30
2017,06,25,09,03,21.40
2017,06,25,09,04,21.50
2017,06,25,09,05,21.50
2017,06,25,09,06,21.60
2017,06,25,09,07,21.70
2017,06,25,09,08,21.80
2017,06,25,09,09,21.80
2017,06,25,09,10,22.00
2017,06,25,09,11,22.00
2017,06,25,09,12,22.20
2017,06,25,09,13,22.30
2017,06,25,09,14,22.40
2017,06,25,09,15,22.50
2017,06,25,09,16,22.60
2017,06,25,09,17,22.70
2017,06,25,09,18,22.70
2017,06,25,09,19,22.80
2017,06,25,09,20,22.80
2017,06,25,09,21,22.90
2017,06,25,09,22,23.00
2017,06,25,09,23,23.10
2017,06,25,09,24,23.20
2017,06,25,09,25,23.30
2017,06,25,09,26,23.40
2017,06,25,09,27,23.50
2017,06,25,09,28,23.60
2017,06,25,09,29,23.70
2017,06,25,09,30,23.80
2017,06,25,09,31,23.80
2017,06,25,09,32,23.80
2017,06,25,09,33,23.90
2017,06,25,09,34,23.90
2017,06,25,09,35,24.00
2017,06,25,09,36,24.00
2017,06,25,09,37,24.10
2017,06,25,09,38,24.20
2017,06,25,09,39,24.20
2017,06,25,09,40,24.30
2017,06,25,09,41,24.40
2017,06,25,09,42,24.50
2017,06,25,09,43,24.50
2017,06,25,09,44,24.60
2017,06,25,09,45,24.70
2017,06,25,09,46,24.80
2017,06,25,09,47,24.80
2017,06,25,09,48,24.90
2017,06,25,09,49,24.90
2017,06,25,09,50,24.90
2017,06,25,09,51,24.90
2017,06,25,09,52,24.90
2017,06,25,09,53,24.80
2017,06,25,09,54,24.80
2017,06,25,09,55,24.80
2017,06,25,09,56,24.80
2017,06,25,09,57,24.90
2017,06,25,09,58,25.00
2017,06,25,09,59,25.10
2017,06,25,10,00,25.10
2017,06,25,10,01,25.10
2017,06,25,10,02,25.20
2017,06,25,10,03,25.20
2017,06,25,10,04,25.30
2017,06,25,10,05,25.30
2017,06,25,10,06,25.40
2017,06,25,10,07,25.50
2017,06,25,10,08,25.70
2017,06,25,10,09,25.80
2017,06,25,10,10,25.90
2017,06,25,10,11,25.90
2017,06,25,10,12,26.10
2017,06,25,10,13,26.20
2017,06,25,10,14,26.30
2017,06,25,10,15,26.40
2017,06,25,10,16,26.50
2017,06,25,10,17,26.70
2017,06,25,10,18,26.80
2017,06,25,10,19,26.90
2017,06,25,10,20,27.00
2017,06,25,10,21,27.10
2017,06,25,10,22,27.10
2017,06,25,10,23,27.10
2017,06,25,10,24,27.20
2017,06,25,10,25,27.10
2017,06,25,10,26,27.00
2017,06,25,10,27,27.00
2017,06,25,10,28,27.00
2017,06,25,10,29,27.10
2017,06,25,10,30,27.10
2017,06,25,10,31,27.20
2017,06,25,10,32,27.20
2017,06,25,10,33,27.20
2017,06,25,10,34,27.20
2017,06,25,10,35,27.20
2017,06,25,10,36,27.20
2017,06,25,10,37,27.10
2017,06,25,10,38,27.20
2017,06,25,10,39,27.20
2017,06,25,10,40,27.20
2017,06,25,10,41,27.10
2017,06,25,10,42,27.10
2017,06,25,10,43,27.10
2017,06,25,10,44,27.00
2017,06,25,10,45,27.00
2017,06,25,10,46,27.00
2017,06,25,10,47,27.00
2017,06,25,10,48,27.00
2017,06,25,10,49,26.90
2017,06,25,10,50,26.90
2017,06,25,10,51,26.90
2017,06,25,10,52,26.90
2017,06,25,10,53,27.00
2017,06,25,10,54,27.10
2017,06,25,10,55,27.10
2017,06,25,10,56,27.20
2017,06,25,10,57,27.30
2017,06,25,10,58,27.40
2017,06,25,10,59,27.50
2017,06,25,11,00,27.60
2017,06,25,11,01,27.70
2017,06,25,11,02,27.80
2017,06,25,11,03,27.80
2017,06,25,11,04,27.80
2017,06,25,11,05,27.80
2017,06,25,11,06,27.80
2017,06,25,11,07,27.80
2017,06,25,11,08,27.80
2017,06,25,11,09,27.80
2017,06,25,11,10,27.90
2017,06,25,11,11,27.90
2017,06,25,11,12,28.00
2017,06,25,11,13,28.10
2017,06,25,11,14,28.20
2017,06,25,11,15,28.30
2017,06,25,11,16,28.30
2017,06,25,11,17,28.40
2017,06,25,11,18,28.40
2017,06,25,11,19,28.40
2017,06,25,11,20,28.40
2017,06,25,11,21,28.30
2017,06,25,11,22,28.30
2017,06,25,11,23,28.30
2017,06,25,11,24,28.30
2017,06,25,11,25,28.30
2017,06,25,11,26,28.40
2017,06,25,11,27,28.50
2017,06,25,11,28,28.60
2017,06,25,11,29,28.60
2017,06,25,11,30,28.60
2017,06,25,11,31,28.70
2017,06,25,11,32,28.70
2017,06,25,11,33,28.70
2017,06,25,11,34,28.80
2017,06,25,11,35,28.80
2017,06,25,11,36,28.80
2017,06,25,11,37,28.80
2017,06,25,11,38,28.80
2017,06,25,11,39,28.70
2017,06,25,11,40,28.70
2017,06,25,11,41,28.70
2017,06,25,11,42,28.70
2017,06,25,11,43,28.70
2017,06,25,11,44,28.70
2017,06,25,11,45,28.70
2017,06,25,11,46,28.80
2017,06,25,11,47,28.90
2017,06,25,11,48,29.00
2017,06,25,11,49,29.00
2017,06,25,11,50,29.10
2017,06,25,11,51,29.10
2017,06,25,11,52,29.10
2017,06,25,11,53,29.10
2017,06,25,11,54,29.20
2017,06,25,11,55,29.20
2017,06,25,11,56,29.20
2017,06,25,11,57,29.20
2017,06,25,11,58,29.20
2017,06,25,11,59,29.20
2017,06,25,12,00,29.20
2017,06,25,12,01,29.10
2017,06,25,12,02,29.10
2017,06,25,12,03,29.10
2017,06,25,12,04,29.10
2017,06,25,12,05,29.10
2017,06,25,12,06,29.20
2017,06,25,12,07,29.20
2017,06,25,12,08,29.30
2017,06,25,12,09,29.30
2017,06,25,12,10,29.30
2017,06,25,12,11,29.30
2017,06,25,12,12,29.20
2017,06,25,12,13,29.10
2017,06,25,12,14,29.00
2017,06,25,12,15,28.90
2017,06,25,12,16,28.90
2017,06,25,12,17,28.80
2017,06,25,12,18,28.80
2017,06,25,12,19,28.80
2017,06,25,12,20,28.90
2017,06,25,12,21,28.90
2017,06,25,12,22,28.90
2017,06,25,12,23,28.90
2017,06,25,12,24,28.90
2017,06,25,12,25,28.90
2017,06,25,12,26,28.90
2017,06,25,12,27,29.00
2017,06,25,12,28,29.00
2017,06,25,12,29,29.00
2017,06,25,12,30,29.00
2017,06,25,12,31,29.00
2017,06,25,12,32,29.00
2017,06,25,12,33,28.90
2017,06,25,12,34,28.90
2017,06,25,12,35,28.80
2017,06,25,12,36,28.80
2017,06,25,12,37,28.80
2017,06,25,12,38,28.80
2017,06,25,12,39,28.80
2017,06,25,12,40,28.80
2017,06,25,12,41,28.80
2017,06,25,12,42,28.90
2017,06,25,12,43,28.90
2017,06,25,12,44,28.90
2017,06,25,12,45,28.90
2017,06,25,12,46,29.00
2017,06,25,12,47,29.00
2017,06,25,12,48,29.00
2017,06,25,12,49,29.10
2017,06,25,12,50,29.10
2017,06,25,12,51,29.10
2017,06,25,12,52,29.20
2017,06,25,12,53,29.20
2017,06,25,12,54,29.20
2017,06,25,12,55,29.30
2017,06,25,12,56,29.30
2017,06,25,12,57,29.40
2017,06,25,12,58,29.40
2017,06,25,12,59,29.40
2017,06,25,13,00,29.40
2017,06,25,13,01,29.40
2017,06,25,13,02,29.30
2017,06,25,13,03,29.30
2017,06,25,13,04,29.30
2017,06,25,13,05,29.30
2017,06,25,13,06,29.30
2017,06,25,13,07,29.30
2017,06,25,13,08,29.30
2017,06,25,13,09,29.30
2017,06,25,13,10,29.30
2017,06,25,13,11,29.30
2017,06,25,13,12,29.40
2017,06,25,13,13,29.40
2017,06,25,13,14,29.40
2017,06,25,13,15,29.40
2017,06,25,13,16,29.40
2017,06,25,13,17,29.40
2017,06,25,13,18,29.40
2017,06,25,13,19,29.40
2017,06,25,13,20,29.30
2017,06,25,13,21,29.30
2017,06,25,13,22,29.30
2017,06,25,13,23,29.30
2017,06,25,13,24,29.30
2017,06,25,13,25,29.30
2017,06,25,13,26,29.30
2017,06,25,13,27,29.40
2017,06,25,13,28,29.40
2017,06,25,13,29,29.50
2017,06,25,13,30,29.60
2017,06,25,13,31,29.60
2017,06,25,13,32,29.60
2017,06,25,13,33,29.60
2017,06,25,13,34,29.70
2017,06,25,13,35,29.70
2017,06,25,13,36,29.70
2017,06,25,13,37,29.80
2017,06,25,13,38,29.90
2017,06,25,13,39,30.00
2017,06,25,13,40,30.00
2017,06,25,13,41,30.10
2017,06,25,13,42,30.10
2017,06,25,13,43,30.10
2017,06,25,13,44,30.00
2017,06,25,13,45,29.90
2017,06,25,13,46,29.90
2017,06,25,13,47,29.90
2017,06,25,13,48,29.90
2017,06,25,13,49,29.90
2017,06,25,13,50,29.90
2017,06,25,13,51,29.90
2017,06,25,13,52,30.00
2017,06,25,13,53,30.10
2017,06,25,13,54,30.10
2017,06,25,13,55,30.20
2017,06,25,13,56,30.20
2017,06,25,13,57,30.30
2017,06,25,13,58,30.30
2017,06,25,13,59,30.40
2017,06,25,14,00,30.40
2017,06,25,14,01,30.40
2017,06,25,14,02,30.40
2017,06,25,14,03,30.40
2017,06,25,14,04,30.40
2017,06,25,14,05,30.30
2017,06,25,14,06,30.30
2017,06,25,14,07,30.30
2017,06,25,14,08,30.30
2017,06,25,14,09,30.30
2017,06,25,14,10,30.30
2017,06,25,14,11,30.30
2017,06,25,14,12,30.40
2017,06,25,14,13,30.40
2017,06,25,14,14,30.50
2017,06,25,14,15,30.60
2017,06,25,14,16,30.60
2017,06,25,14,17,30.60
2017,06,25,14,18,30.60
2017,06,25,14,19,30.50
2017,06,25,14,20,30.50
2017,06,25,14,21,30.40
2017,06,25,14,22,30.40
2017,06,25,14,23,30.40
2017,06,25,14,24,30.50
2017,06,25,14,25,30.60
2017,06,25,14,26,30.60
2017,06,25,14,27,30.70
2017,06,25,14,28,30.80
2017,06,25,14,29,30.80
2017,06,25,14,30,30.80
2017,06,25,14,31,30.80
2017,06,25,14,32,30.80
2017,06,25,14,33,30.80
2017,06,25,14,34,30.80
2017,06,25,14,35,30.80
2017,06,25,14,36,30.80
2017,06,25,14,37,30.80
2017,06,25,14,38,30.80
2017,06,25,14,39,30.90
2017,06,25,14,40,30.90
2017,06,25,14,41,31.00
2017,06,25,14,42,31.00
2017,06,25,14,43,31.10
2017,06,25,14,44,31.20
2017,06,25,14,45,31.20
2017,06,25,14,46,31.30
2017,06,25,14,47,31.40
2017,06,25,14,48,31.60
2017,06,25,14,49,31.70
2017,06,25,14,50,31.80
2017,06,25,14,51,31.90
2017,06,25,14,52,32.00
2017,06,25,14,53,32.10
2017,06,25,14,54,32.10
2017,06,25,14,55,32.00
2017,06,25,14,56,31.90
2017,06,25,14,57,31.70
2017,06,25,14,58,31.60
2017,06,25,14,59,31.60
2017,06,25,15,00,31.60
2017,06,25,15,01,31.70
2017,06,25,15,02,31.70
2017,06,25,15,03,31.80
2017,06,25,15,04,31.90
2017,06,25,15,05,32.00
2017,06,25,15,06,32.20
2017,06,25,15,07,32.20
2017,06,25,15,08,32.20
2017,06,25,15,09,32.20
2017,06,25,15,10,32.30
2017,06,25,15,11,32.30
2017,06,25,15,12,32.40
2017,06,25,15,13,32.40
2017,06,25,15,14,32.40
2017,06,25,15,15,32.40
2017,06,25,15,16,32.40
2017,06,25,15,17,32.40
2017,06,25,15,18,32.40
2017,06,25,15,19,32.40
2017,06,25,15,20,32.50
2017,06,25,15,21,32.50
2017,06,25,15,22,32.50
2017,06,25,15,23,32.50
2017,06,25,15,24,32.50
2017,06,25,15,25,32.60
2017,06,25,15,26,32.60
2017,06,25,15,27,32.60
2017,06,25,15,28,32.60
2017,06,25,15,29,32.70
2017,06,25,15,30,32.70
2017,06,25,15,31,32.70
2017,06,25,15,32,32.70
2017,06,25,15,33,32.70
2017,06,25,15,34,32.70
2017,06,25,15,35,32.70
2017,06,25,15,36,32.70
2017,06,25,15,37,32.70
2017,06,25,15,38,32.60
2017,06,25,15,39,32.60
2017,06,25,15,40,32.60
2017,06,25,15,41,32.50
2017,06,25,15,42,32.50
2017,06,25,15,43,32.50
2017,06,25,15,44,32.50
2017,06,25,15,45,32.50
2017,06,25,15,46,32.60
2017,06,25,15,47,32.60
2017,06,25,15,48,32.70
2017,06,25,15,49,32.80
2017,06,25,15,50,32.90
2017,06,25,15,51,33.10
2017,06,25,15,52,33.10
2017,06,25,15,53,33.20
2017,06,25,15,54,33.20
2017,06,25,15,55,33.20
2017,06,25,15,56,33.10
2017,06,25,15,57,33.10
2017,06,25,15,58,33.00
2017,06,25,15,59,33.00
2017,06,25,16,00,33.10
2017,06,25,16,01,33.10
2017,06,25,16,02,33.10
2017,06,25,16,03,33.10
2017,06,25,16,04,33.20
2017,06,25,16,05,33.20
2017,06,25,16,06,33.30
2017,06,25,16,07,33.40
2017,06,25,16,08,33.50
2017,06,25,16,09,33.60
2017,06,25,16,10,33.60
2017,06,25,16,11,33.70
2017,06,25,16,12,33.70
2017,06,25,16,13,33.80
2017,06,25,16,14,33.80
2017,06,25,16,15,33.80
2017,06,25,16,16,33.80
2017,06,25,16,17,33.80
2017,06,25,16,18,33.90
2017,06,25,16,19,33.90
2017,06,25,16,20,34.00
2017,06,25,16,21,34.10
2017,06,25,16,22,34.10
2017,06,25,16,23,34.10
2017,06,25,16,24,34.10
2017,06,25,16,25,34.20
2017,06,25,16,26,34.20
2017,06,25,16,27,34.20
2017,06,25,16,28,34.30
2017,06,25,16,29,34.30
2017,06,25,16,30,34.30
2017,06,25,16,31,34.30
2017,06,25,16,32,34.30
2017,06,25,16,33,34.30
2017,06,25,16,34,34.20
2017,06,25,16,35,34.20
2017,06,25,16,36,34.20
2017,06,25,16,37,34.20
2017,06,25,16,38,34.20
2017,06,25,16,39,34.20
2017,06,25,16,40,34.20
2017,06,25,16,41,34.30
2017,06,25,16,42,34.30
2017,06,25,16,43,34.40
2017,06,25,16,44,34.50
2017,06,25,16,45,34.60
2017,06,25,16,46,34.60
2017,06,25,16,47,34.60
2017,06,25,16,48,34.50
2017,06,25,16,49,34.50
2017,06,25,16,50,34.50
2017,06,25,16,51,34.50
2017,06,25,16,52,34.40
2017,06,25,16,53,34.40
2017,06,25,16,54,34.40
2017,06,25,16,55,34.30
2017,06,25,16,56,34.30
2017,06,25,16,57,34.30
2017,06,25,16,58,34.30
2017,06,25,16,59,34.30
2017,06,25,17,00,34.30
2017,06,25,17,01,34.20
2017,06,25,17,02,34.20
2017,06,25,17,03,34.20
2017,06,25,17,04,34.20
2017,06,25,17,05,34.20
2017,06,25,17,06,34.10
2017,06,25,17,07,34.10
2017,06,25,17,08,34.00
2017,06,25,17,09,33.90
2017,06,25,17,10,33.90
2017,06,25,17,11,33.80
2017,06,25,17,12,33.80
2017,06,25,17,13,33.80
2017,06,25,17,14,33.80
2017,06,25,17,15,33.80
2017,06,25,17,16,33.80
2017,06,25,17,17,33.80
2017,06,25,17,18,33.80
2017,06,25,17,19,33.80
2017,06,25,17,20,33.80